Location: Leuk
(46.3174°N, 7.6341°E)
Time: 03:13:17
(UTC+00:00)

Cosmos 2360 Rocket - Visible Passes

Search period start: 06 October 2022 00:00
Search period end: 16 October 2022 00:00
Orbit: 835 x 844 km, 71.0° (Epoch: 05 October)

Date Brightness Start Highest point End Pass type
(mag) Time Alt. Az. Time Alt. Az. Time Alt. Az.
06 Oct 4.9 02:25:01 10° N 02:28:22 16° NE 02:31:42 10° ENE visible
06 Oct 2.5 04:07:47 10° NNW 04:13:26 71° ENE 04:19:02 10° SE visible
06 Oct 2.1 19:00:57 10° SSW 19:06:36 87° ESE 19:12:17 10° NNE visible
06 Oct 4.5 20:47:19 10° W 20:51:22 20° NW 20:55:27 10° N visible
07 Oct 4.9 02:09:18 10° N 02:12:30 15° NE 02:15:41 10° ENE visible
07 Oct 2.5 03:52:00 10° NNW 03:57:38 67° ENE 04:03:13 10° SE visible
07 Oct 2.1 18:45:11 10° SSW 18:50:49 82° ESE 18:56:29 10° NNE visible
07 Oct 4.5 20:31:20 10° W 20:35:31 21° NW 20:39:43 10° N visible
08 Oct 4.9 01:53:37 10° N 01:56:38 14° NE 01:59:39 10° ENE visible
08 Oct 2.6 03:36:14 10° NNW 03:41:49 63° ENE 03:47:23 10° SE visible
08 Oct 2.1 18:29:24 10° SSW 18:35:02 77° ESE 18:40:41 10° NNE visible
08 Oct 4.4 20:15:23 10° W 20:19:40 22° NW 20:23:59 10° N visible
09 Oct 5.0 01:37:57 10° N 01:40:46 14° NE 01:43:35 10° ENE visible
09 Oct 2.7 03:20:27 10° NNW 03:26:02 59° ENE 03:31:34 10° SE visible
09 Oct 3.3 05:05:15 10° NW 05:09:34 23° WSW 05:13:50 10° SSW visible
09 Oct 2.1 18:13:38 10° SSW 18:19:15 73° ESE 18:24:53 10° NNE visible
09 Oct 4.4 19:59:26 10° W 20:03:50 23° NW 20:08:15 10° N visible
10 Oct 5.0 01:22:17 10° N 01:24:54 13° NE 01:27:31 10° ENE visible
10 Oct 2.8 03:04:40 10° NNW 03:10:12 56° ENE 03:15:43 10° SE visible
10 Oct 3.2 04:49:22 10° NW 04:53:48 24° WSW 04:58:14 10° SSW visible
10 Oct 2.1 17:57:52 10° SSW 18:03:27 69° ESE 18:09:04 10° NNE visible
10 Oct 4.3 19:43:29 10° W 19:47:59 24° NW 19:52:30 10° N visible
11 Oct 5.0 01:06:37 10° N 01:09:01 13° NE 01:11:25 10° ENE visible
11 Oct 2.9 02:48:53 10° NNW 02:54:24 53° ENE 02:59:53 10° SE visible
11 Oct 3.1 04:33:29 10° NW 04:38:03 26° WSW 04:42:36 10° SSW visible
11 Oct 2.2 17:42:06 10° SSW 17:47:41 64° ESE 17:53:16 10° NNE visible
11 Oct 4.3 19:27:33 10° WSW 19:32:08 25° NW 19:36:46 10° N visible
12 Oct 5.0 00:51:00 10° NNE 00:53:09 12° NE 00:55:18 10° ENE visible
12 Oct 2.9 02:34:57 21° N 02:38:35 50° ENE 02:44:02 10° SE visible
12 Oct 3.0 04:17:36 10° NW 04:22:17 28° WSW 04:26:57 10° SSW visible
12 Oct 2.2 17:26:22 10° S 17:31:54 60° ESE 17:37:27 10° NNE visible
12 Oct 4.2 19:11:36 10° WSW 19:16:18 26° NW 19:21:01 10° N visible
13 Oct5.400:42:27E00:42:27E00:32:49Nvisible
13 Oct 3.4 02:24:28 36° ESE 02:24:28 36° ESE 02:28:10 10° SE visible
13 Oct 2.9 04:06:28 29° WSW 04:06:31 29° WSW 04:11:18 10° SSW visible
13 Oct 2.3 17:10:37 10° S 17:16:06 57° ESE 17:21:38 10° NNE visible
13 Oct 4.1 18:55:41 10° WSW 19:00:28 28° NW 19:05:16 10° N visible
14 Oct 4.7 02:12:10 11° SE 02:12:10 11° SE 02:12:19 10° SE visible
14 Oct 3.8 03:54:08 17° SSW 03:54:08 17° SSW 03:55:38 10° SSW visible
14 Oct 4.1 18:39:46 10° WSW 18:44:37 29° NW 18:49:30 10° N visible
15 Oct 4.0 18:23:51 10° WSW 18:28:47 30° NW 18:33:45 10° N visible
